Terug naar catalogus

COSMOS 1994

ActiefMilitairPO
NORAD 19785·PAYLOAD·🇷🇺 Russia

Gelanceerd Feb 10, 1989 vanaf Plesetsk Cosmodrome

Loading…

Volgende Passages (komende 24 uur)

TLE

VersSource: Space-Track

Epoch: Sep 14, 2026, 13:20 UTC

1 19785U 89009A   26257.55580147  .00000017  00000-0  35177-4 0  9998
2 19785  82.6187 294.8780 0014113 105.5119  49.5331 12.64344306734679

Volg COSMOS 1994 in realtime met AllMySat

Download on the App Store